This is the latest recevied weather packets stored in our database for station/object DO1MIT-10. If no packets are shown the sender has not sent any weather packets the latest 10 day(s).
| Time | Temp. | Humidity | Pressure | Rain* | Wind** | Luminosity | Snow |
|---|---|---|---|---|---|---|---|
| 1777189718 | 8.89° C | 69% | 1027.6 hPa | - | - | - | - |
| 1777188817 | 8.89° C | 69% | 1027.4 hPa | - | - | - | - |
| 1777187917 | 8.33° C | 70% | 1027.4 hPa | - | - | - | - |
| 1777187017 | 7.22° C | 70% | 1027.3 hPa | - | - | - | - |
| 1777186117 | 6.67° C | 70% | 1027.3 hPa | - | - | - | - |
| 1777185217 | 7.22° C | 71% | 1027 hPa | - | - | - | - |
| 1777184317 | 6.11° C | 71% | 1026.9 hPa | - | - | - | - |
| 1777183417 | 5.56° C | 71% | 1026.7 hPa | - | - | - | - |
| 1777182516 | 5.56° C | 71% | 1026.4 hPa | - | - | - | - |
| 1777181616 | 5.56° C | 72% | 1026.3 hPa | - | - | - | - |
| 1777180716 | 5° C | 72% | 1025.9 hPa | - | - | - | - |
| 1777179816 | 5° C | 72% | 1025.6 hPa | - | - | - | - |
| 1777178916 | 4.44° C | 72% | 1025.3 hPa | - | - | - | - |
| 1777178016 | 3.89° C | 71% | 1025.1 hPa | - | - | - | - |
| 1777177116 | 3.89° C | 71% | 1024.9 hPa | - | - | - | - |
| 1777176216 | 3.89° C | 71% | 1024.8 hPa | - | - | - | - |
| 1777175315 | 3.89° C | 70% | 1024.5 hPa | - | - | - | - |
| 1777174415 | 3.89° C | 70% | 1024.3 hPa | - | - | - | - |
| 1777173515 | 4.44° C | 70% | 1024.1 hPa | - | - | - | - |
| 1777172615 | 5° C | 69% | 1023.8 hPa | - | - | - | - |
| 1777171715 | 5.56° C | 69% | 1023.7 hPa | - | - | - | - |
| 1777170815 | 5.56° C | 69% | 1023.5 hPa | - | - | - | - |
| 1777169915 | 5.56° C | 69% | 1023.4 hPa | - | - | - | - |
| 1777169015 | 5.56° C | 69% | 1023.1 hPa | - | - | - | - |
| 1777168114 | 5.56° C | 68% | 1023 hPa | - | - | - | - |
* Rain since midnight (hover to see other rain measurements)
** Current wind speed in m/s (hover to see current wind gust speed)